EW7685 Weather Reports


Display with metric or nautical units.
time (UTC)temp
F
wind
direction
speed
MPH
gust
MPH
rain 1hr
in
rain 24hr
in
rain mn
in
humidity
%
barometer
mb
20201204104551 59 1 0.0 0.0 0.00 0.00 0.00 90 1021.2
20201204104049 59 1 0.0 0.0 0.00 0.00 0.00 90 1021.3
20201204103533 59 1 0.0 0.0 0.00 0.00 0.00 90 1021.2
20201204103028 59 1 0.0 0.0 0.00 0.00 0.00 90 1021.1
20201204102542 59 1 0.0 0.0 0.00 0.00 0.00 90 1021.0
20201204102041 59 1 0.0 0.0 0.00 0.00 0.00 91 1021.0
20201204101517 58 1 0.0 0.0 0.00 0.00 0.00 91 1021.1
20201204101027 58 1 0.0 0.0 0.00 0.00 0.00 92 1021.2
20201204100507 58 1 0.0 0.0 0.00 0.00 0.00 92 1021.2
20201204095952 58 1 0.0 0.0 0.00 0.00 0.00 92 1021.2
20201204095453 58 1 0.0 0.0 0.00 0.00 0.00 92 1021.1
20201204094940 58 1 0.0 0.0 0.00 0.00 0.00 92 1021.0
20201204094435 58 1 0.0 0.0 0.00 0.00 0.00 92 1021.0
20201204093932 58 1 0.0 0.0 0.00 0.00 0.00 92 1021.0
20201204093422 58 1 0.0 0.0 0.00 0.00 0.00 93 1021.2
20201204092918 58 1 0.0 0.0 0.00 0.00 0.00 93 1021.1
20201204092412 58 1 0.0 0.0 0.00 0.00 0.00 93 1021.1
20201204091907 57 1 0.0 0.0 0.00 0.00 0.00 93 1020.7
20201204091358 57 1 0.0 0.0 0.00 0.00 0.00 94 1020.9
20201204090851 57 1 0.0 0.0 0.00 0.00 0.00 94 1020.9
20201204090347 57 1 0.0 0.0 0.00 0.00 0.00 93 1021.0
20201204085840 57 1 0.0 0.0 0.00 0.00 0.00 93 1021.0
20201204085337 57 1 0.0 0.0 0.00 0.00 0.00 94 1021.2
20201204084828 57 1 0.0 0.0 0.00 0.00 0.00 94 1021.3
20201204084321 57 1 0.0 0.0 0.00 0.00 0.00 94 1021.3
20201204083819 57 1 0.0 0.0 0.00 0.00 0.00 94 1021.3
20201204083311 57 1 0.0 0.0 0.00 0.00 0.00 94 1021.3
20201204082810 56 1 0.0 0.0 0.00 0.00 0.00 94 1021.1
20201204082309 56 1 0.0 0.0 0.00 0.00 0.00 94 1021.2
20201204081806 56 1 0.0 0.0 0.00 0.00 0.00 94 1021.2
20201204081300 56 1 0.0 0.0 0.00 0.00 0.00 94 1021.3
20201204080755 56 1 0.0 0.0 0.00 0.00 0.00 93 1021.4
20201204080305 56 1 0.0 0.0 0.00 0.00 0.00 94 1021.5
20201204075756 56 1 0.0 0.0 0.00 0.00 0.00 94 1021.7
20201204075259 56 1 0.0 0.0 0.00 0.00 0.00 94 1021.6
20201204074801 56 1 0.0 0.0 0.00 0.00 0.00 93 1021.5
20201204073753 56 1 0.0 0.0 0.00 0.00 0.00 93 1021.6
20201204073256 56 1 0.0 0.0 0.00 0.00 0.00 93 1021.7
20201204072755 56 1 0.0 0.0 0.00 0.00 0.00 93 1021.8
20201204072255 56 1 0.0 0.0 0.00 0.00 0.00 93 1021.8
20201204071827 56 1 0.0 0.0 0.00 0.00 0.00 93 1021.9
20201204071251 56 1 0.0 0.0 0.00 0.00 0.00 93 1021.9
20201204070753 56 1 0.0 0.0 0.00 0.00 0.00 93 1021.9
20201204070251 56 1 0.0 0.0 0.00 0.00 0.00 92 1021.9
20201204065748 57 1 0.0 0.0 0.00 0.00 0.00 92 1022.0
20201204065252 57 1 0.0 0.0 0.00 0.00 0.00 93 1022.2
20201204064752 57 1 0.0 0.0 0.00 0.00 0.00 93 1022.2
20201204064244 56 1 0.0 0.0 0.00 0.00 0.00 93 1022.1
20201204063737 56 1 0.0 0.0 0.00 0.00 0.00 93 1022.1
20201204063230 56 1 0.0 0.0 0.00 0.00 0.00 93 1022.0
20201204062723 56 1 0.0 0.0 0.00 0.00 0.00 92 1022.0
20201204062221 56 1 0.0 0.0 0.00 0.00 0.00 92 1022.2
20201204061716 56 1 0.0 0.0 0.00 0.00 0.00 92 1022.3
20201204061204 56 1 0.0 0.0 0.00 0.00 0.00 92 1022.2
20201204060704 56 1 0.0 0.0 0.00 0.00 0.00 92 1022.3
20201204060201 56 1 0.0 0.0 0.00 0.00 0.00 91 1022.2
20201204055657 56 1 0.0 0.0 0.00 0.00 0.00 91 1022.3
20201204055159 57 1 0.0 0.0 0.00 0.00 0.00 91 1022.3
20201204054655 57 1 0.0 0.0 0.00 0.00 0.00 91 1022.3
20201204054153 57 1 0.0 0.0 0.00 0.00 0.00 91 1022.4
20201204053650 56 1 0.0 0.0 0.00 0.00 0.00 91 1022.4
20201204053153 57 0 0.0 0.0 0.00 0.00 0.00 91 1022.4
20201204052651 56 13 0.0 0.0 0.00 0.00 0.00 91 1022.4
20201204052147 57 343 0.0 0.0 0.00 0.00 0.00 90 1022.5
20201204051647 57 343 0.0 0.0 0.00 0.00 0.00 89 1022.6
20201204051146 58 343 0.0 0.0 0.00 0.00 0.00 88 1022.7
20201204050648 59 343 0.0 0.0 0.00 0.00 0.00 87 1022.9
20201204050148 59 4 0.0 0.0 0.00 0.00 0.00 87 1022.9
20201204045640 59 349 0.0 0.0 0.00 0.00 0.00 87 1022.8
20201204045134 59 14 0.0 0.0 0.00 0.00 0.00 88 1022.6
20201204044628 58 51 0.0 0.0 0.00 0.00 0.00 88 1022.4
20201204044124 58 53 0.0 0.0 0.00 0.00 0.00 88 1022.4
20201204043623 58 53 0.0 0.0 0.00 0.00 0.00 86 1022.4
20201204043110 59 52 0.0 0.0 0.00 0.00 0.00 86 1022.5
20201204042608 60 52 0.0 0.0 0.00 0.00 0.00 85 1022.4
20201204042104 60 53 0.0 0.0 0.00 0.00 0.00 87 1022.4
20201204041050 59 66 0.0 0.0 0.00 0.00 0.00 90 1022.4
20201204040540 58 65 0.0 0.0 0.00 0.00 0.00 91 1022.4
20201204040037 57 55 0.0 0.0 0.00 0.00 0.00 91 1022.5
20201204035531 58 49 0.0 0.0 0.00 0.00 0.00 90 1022.5
20201204035025 58 42 0.0 0.0 0.00 0.00 0.00 90 1022.6
20201204034524 58 42 0.0 0.0 0.00 0.00 0.00 89 1022.5
20201204034020 58 42 0.0 0.0 0.00 0.00 0.00 89 1022.5
20201204033513 59 42 0.0 0.0 0.00 0.00 0.00 88 1022.7
20201204032958 59 42 0.0 0.0 0.00 0.00 0.00 90 1022.7
20201204032453 58 42 0.0 0.0 0.00 0.00 0.00 88 1022.6
20201204031948 59 42 0.0 0.0 0.00 0.00 0.00 88 1022.5
20201204031440 60 42 0.0 0.0 0.00 0.00 0.00 89 1022.5
20201204030938 59 42 0.0 0.0 0.00 0.00 0.00 90 1022.4
20201204030433 59 42 0.0 0.0 0.00 0.00 0.00 91 1022.6
20201204025922 58 42 0.0 0.0 0.00 0.00 0.00 91 1022.7
20201204025417 58 42 0.0 0.0 0.00 0.00 0.00 91 1022.7
20201204024914 58 42 0.0 0.0 0.00 0.00 0.00 91 1022.6
20201204024405 58 42 0.0 0.0 0.00 0.00 0.00 91 1022.8
20201204023859 58 42 0.0 0.0 0.00 0.00 0.00 92 1022.9
20201204023355 58 42 0.0 0.0 0.00 0.00 0.00 91 1022.8
20201204022847 58 42 0.0 0.0 0.00 0.00 0.00 91 1022.7
20201204022344 58 42 0.0 0.0 0.00 0.00 0.00 90 1022.8
20201204021836 59 42 0.0 0.0 0.00 0.00 0.00 89 1022.8
20201204021328 59 42 0.0 0.0 0.00 0.00 0.00 89 1023.0
20201204020822 59 42 0.0 0.0 0.00 0.00 0.00 90 1023.1
20201204020322 58 42 0.0 0.0 0.00 0.00 0.00 90 1023.2
20201204015811 58 42 0.0 0.0 0.00 0.00 0.00 90 1023.3
20201204015314 59 42 0.0 0.0 0.00 0.00 0.00 90 1023.2
20201204014758 58 42 0.0 0.0 0.00 0.00 0.00 91 1023.2
20201204014257 58 42 0.0 0.0 0.00 0.00 0.00 91 1023.2
20201204013756 58 42 0.0 0.0 0.00 0.00 0.00 92 1023.3
20201204013253 58 42 0.0 0.0 0.00 0.00 0.00 91 1023.3
20201204012755 58 42 0.0 0.0 0.00 0.00 0.00 91 1023.3
20201204012253 58 42 0.0 0.0 0.00 0.00 0.00 92 1023.3
20201204011749 58 42 0.0 0.0 0.00 0.00 0.00 92 1023.3
20201204011248 57 42 0.0 0.0 0.00 0.00 0.00 92 1023.3
20201204010748 56 42 0.0 0.0 0.00 0.00 0.00 92 1023.3
20201204010247 57 42 0.0 0.0 0.00 0.00 0.00 91 1023.2
20201204005748 57 42 0.0 0.0 0.00 0.00 0.00 91 1023.3
20201204005241 57 42 0.0 0.0 0.00 0.00 0.00 92 1023.3
20201204004743 57 42 0.0 0.0 0.00 0.00 0.00 91 1023.4
20201204004242 57 42 0.0 0.0 0.00 0.00 0.00 91 1023.4
20201204003743 57 42 0.0 0.0 0.00 0.00 0.00 90 1023.5
20201204003239 57 42 0.0 0.0 0.00 0.00 0.00 89 1023.5
20201204002738 58 42 0.0 0.0 0.00 0.00 0.00 89 1023.4
20201204002240 58 42 0.0 0.0 0.00 0.00 0.00 90 1023.4
20201204001740 58 42 0.0 0.0 0.00 0.00 0.00 91 1023.2
20201204001237 57 42 0.0 0.0 0.00 0.00 0.00 91 1023.2
20201204000752 57 42 0.0 0.0 0.00 0.00 0.00 90 1023.1
20201204000244 57 42 0.0 0.0 0.00 0.00 0.00 90 1023.1
20201203235746 57 42 0.0 0.0 0.00 0.00 0.00 89 1023.2
20201203235249 58 42 0.0 0.0 0.00 0.00 0.00 89 1023.2
20201203234738 58 42 0.0 0.0 0.00 0.00 0.00 88 1023.3
20201203234237 59 42 0.0 0.0 0.00 0.00 0.00 87 1023.2
20201203233735 60 42 0.0 0.0 0.00 0.00 0.00 86 1023.3
20201203233236 60 42 0.0 0.0 0.00 0.00 0.00 86 1023.3
20201203232746 60 42 0.0 0.0 0.00 0.00 0.00 87 1023.3
20201203232239 59 42 0.0 0.0 0.00 0.00 0.00 88 1023.2
20201203231737 59 42 0.0 0.0 0.00 0.00 0.00 86 1023.1
20201203231236 60 74 0.0 0.0 0.00 0.00 0.00 84 1023.1
20201203230740 61 74 0.0 0.0 0.00 0.00 0.00 83 1023.2
20201203230230 62 74 0.0 0.0 0.00 0.00 0.00 82 1023.3
20201203225724 62 74 0.0 0.0 0.00 0.00 0.00 81 1023.3
20201203225223 62 74 0.0 0.0 0.00 0.00 0.00 79 1023.2
20201203224750 64 74 0.0 0.0 0.00 0.00 0.00 77 1023.1
20201203224231 65 74 0.0 0.0 0.00 0.00 0.00 76 1023.0
20201203223718 65 74 0.0 0.0 0.00 0.00 0.00 75 1023.0
20201203223218 66 74 0.0 0.0 0.00 0.00 0.00 74 1022.8
20201203222716 66 74 0.0 0.0 0.00 0.00 0.00 74 1022.7
20201203222212 66 62 0.0 0.0 0.00 0.00 0.00 74 1022.7
20201203221711 66 79 0.0 0.0 0.00 0.00 0.00 74 1022.7
20201203221211 66 62 0.0 0.0 0.00 0.00 0.00 74 1022.6
20201203220707 67 70 0.0 0.0 0.00 0.00 0.00 73 1022.5
20201203220210 67 65 0.0 0.0 0.00 0.00 0.00 73 1022.5
20201203215711 67 65 0.0 0.0 0.00 0.00 0.00 72 1022.6
20201203215207 68 66 0.0 0.0 0.00 0.00 0.00 71 1022.6
20201203214705 68 49 0.0 0.0 0.00 0.00 0.00 70 1022.5
20201203214208 69 55 0.0 0.0 0.00 0.00 0.00 70 1022.4
20201203213706 69 76 0.0 0.0 0.00 0.00 0.00 69 1022.3
20201203213205 69 62 0.0 0.0 0.00 0.00 0.00 69 1022.2
20201203212704 69 66 0.0 0.0 0.00 0.00 0.00 68 1022.2
20201203212203 69 94 0.0 0.0 0.00 0.00 0.00 67 1022.1
20201203211704 69 91 0.0 0.0 0.00 0.00 0.00 66 1022.1
20201203211158 70 61 0.0 0.0 0.00 0.00 0.00 66 1022.2
20201203210651 70 89 0.0 0.0 0.00 0.00 0.00 65 1022.3
20201203210145 70 72 0.0 0.0 0.00 0.00 0.00 66 1022.2
20201203205132 70 69 0.0 0.0 0.00 0.00 0.00 65 1022.3
20201203204627 70 110 0.0 0.0 0.00 0.00 0.00 64 1022.3
20201203204125 70 104 0.0 0.0 0.00 0.00 0.00 64 1022.3
20201203203616 70 91 0.0 0.0 0.00 0.00 0.00 64 1022.4
20201203203116 70 88 0.0 0.0 0.00 0.00 0.00 63 1022.4
20201203202605 70 70 0.0 0.0 0.00 0.00 0.00 63 1022.5
20201203202057 71 102 0.0 0.0 0.00 0.00 0.00 64 1022.5
20201203201553 71 89 0.0 0.0 0.00 0.00 0.00 63 1022.5
20201203201045 71 92 0.0 0.0 0.00 0.00 0.00 63 1022.5
20201203200539 71 45 0.0 0.0 0.00 0.00 0.00 63 1022.4
20201203200043 71 59 0.0 0.0 0.00 0.00 0.00 63 1022.4
20201203195529 71 81 0.0 0.0 0.00 0.00 0.00 63 1022.4
20201203195023 71 75 0.0 0.0 0.00 0.00 0.00 63 1022.4
20201203194525 71 108 0.0 0.0 0.00 0.00 0.00 61 1022.5
20201203194022 72 54 0.0 0.0 0.00 0.00 0.00 60 1022.4
20201203193509 71 47 0.0 0.0 0.00 0.00 0.00 62 1022.4
20201203193008 71 87 0.0 0.0 0.00 0.00 0.00 62 1022.4
20201203192452 72 52 0.0 0.0 0.00 0.00 0.00 61 1022.4
20201203191946 72 62 0.0 0.0 0.00 0.00 0.00 61 1022.4
20201203191438 72 69 0.0 0.0 0.00 0.00 0.00 61 1022.5
20201203190934 73 51 0.0 0.0 0.00 0.00 0.00 60 1022.5
20201203190428 73 43 0.0 0.0 0.00 0.00 0.00 60 1022.6
20201203185921 73 62 0.0 0.0 0.00 0.00 0.00 62 1022.6
20201203185415 72 108 0.0 0.0 0.00 0.00 0.00 62 1022.6
20201203184909 72 99 0.0 0.0 0.00 0.00 0.00 62 1022.6
20201203184404 72 83 0.0 0.0 0.00 0.00 0.00 61 1022.7
20201203183901 72 165 0.0 0.0 0.00 0.00 0.00 62 1022.8
20201203183351 73 81 0.0 0.0 0.00 0.00 0.00 60 1022.9
20201203182846 73 79 0.0 0.0 0.00 0.00 0.00 60 1022.9
20201203182339 72 105 0.0 0.0 0.00 0.00 0.00 62 1022.9
20201203181833 72 122 0.0 0.0 0.00 0.00 0.00 62 1022.9
20201203181328 71 87 0.0 0.0 0.00 0.00 0.00 62 1023.1
20201203180824 71 43 0.0 0.0 0.00 0.00 0.00 63 1023.1
20201203180322 71 75 0.0 0.0 0.00 0.00 0.00 64 1023.2
20201203175821 70 44 0.0 0.0 0.00 0.00 0.00 64 1023.3
20201203175322 71 95 0.0 0.0 0.00 0.00 0.00 62 1023.4
20201203174823 71 69 0.0 0.0 0.00 0.00 0.00 64 1023.4
20201203174321 72 72 0.0 0.0 0.00 0.00 0.00 61 1023.5
20201203173825 72 65 0.0 0.0 0.00 0.00 0.00 61 1023.6
20201203173324 73 19 0.0 0.0 0.00 0.00 0.00 61 1023.7
20201203172829 72 111 0.0 0.0 0.00 0.00 0.00 62 1023.7
20201203172323 72 102 0.0 0.0 0.00 0.00 0.00 63 1023.9
20201203171823 70 88 0.0 0.0 0.00 0.00 0.00 65 1023.9
20201203171320 70 96 0.0 0.0 0.00 0.00 0.00 65 1023.9
20201203170817 70 46 0.0 0.0 0.00 0.00 0.00 65 1023.9
20201203170325 71 114 0.0 0.0 0.00 0.00 0.00 62 1023.9
20201203165818 71 97 0.0 0.0 0.00 0.00 0.00 65 1024.1
20201203165318 70 119 0.0 0.0 0.00 0.00 0.00 65 1024.2
20201203164820 71 72 0.0 0.0 0.00 0.00 0.00 63 1024.3
20201203164319 70 71 0.0 0.0 0.00 0.00 0.00 64 1024.4
20201203163812 71 66 0.0 0.0 0.00 0.00 0.00 63 1024.5
20201203163308 71 52 0.0 0.0 0.00 0.00 0.00 64 1024.6
20201203162806 70 79 0.0 0.0 0.00 0.00 0.00 64 1024.7
20201203162305 70 93 0.0 0.0 0.00 0.00 0.00 65 1024.7
20201203161805 70 118 0.0 0.0 0.00 0.00 0.00 65 1024.8
20201203161309 71 46 0.0 0.0 0.00 0.00 0.00 64 1024.8
20201203160805 69 81 0.0 0.0 0.00 0.00 0.00 66 1024.9
20201203160302 69 52 0.0 0.0 0.00 0.00 0.00 67 1024.9
20201203155818 69 99 0.0 0.0 0.00 0.00 0.00 66 1025.0
20201203155306 68 90 0.0 0.0 0.00 0.00 0.00 68 1025.1
20201203154801 68 62 0.0 0.0 0.00 0.00 0.00 68 1025.1
20201203154302 69 39 0.0 0.0 0.00 0.00 0.00 66 1025.1
20201203153819 68 18 0.0 0.0 0.00 0.00 0.00 69 1025.0
20201203153305 67 38 0.0 0.0 0.00 0.00 0.00 71 1025.0
20201203152806 67 65 0.0 0.0 0.00 0.00 0.00 70 1025.1
20201203152306 66 54 0.0 0.0 0.00 0.00 0.00 71 1025.1
20201203151801 65 81 0.0 0.0 0.00 0.00 0.00 73 1025.2
20201203151303 65 83 0.0 0.0 0.00 0.00 0.00 72 1025.2
20201203150805 65 9 0.0 0.0 0.00 0.00 0.00 76 1025.3
20201203150258 65 25 0.0 0.0 0.00 0.00 0.00 74 1025.3
20201203145801 64 10 0.0 0.0 0.00 0.00 0.00 75 1025.3
20201203145305 63 29 0.0 0.0 0.00 0.00 0.00 76 1025.4
20201203144757 62 358 0.0 0.0 0.00 0.00 0.00 78 1025.4
20201203144259 61 328 0.0 0.0 0.00 0.00 0.00 77 1025.3
20201203143757 61 3 0.0 0.0 0.00 0.00 0.00 77 1025.4
20201203143259 60 349 0.0 0.0 0.00 0.00 0.00 80 1025.3
20201203142757 59 10 0.0 0.0 0.00 0.00 0.00 81 1025.3
20201203142300 58 2 0.0 0.0 0.00 0.00 0.00 81 1025.3
20201203141757 58 308 0.0 0.0 0.00 0.00 0.00 83 1025.3
20201203141258 57 25 0.0 0.0 0.00 0.00 0.00 84 1025.3
20201203140756 56 7 0.0 0.0 0.00 0.00 0.00 85 1025.3
20201203140257 56 16 0.0 0.0 0.00 0.00 0.00 86 1025.2
20201203135758 54 356 0.0 0.0 0.00 0.00 0.00 88 1025.3
20201203135251 53 5 0.0 0.0 0.00 0.00 0.00 89 1025.1
20201203134751 53 333 0.0 0.0 0.00 0.00 0.00 90 1025.1
20201203134240 53 355 0.0 0.0 0.00 0.00 0.00 92 1025.1
20201203133734 52 151 0.0 0.0 0.00 0.00 0.00 93 1025.1
20201203133229 50 151 0.0 0.0 0.00 0.00 0.00 94 1025.1
20201203132723 50 151 0.0 0.0 0.00 0.00 0.00 94 1025.1
20201203132217 49 141 0.0 0.0 0.00 0.00 0.00 94 1025.0
20201203131711 49 114 0.0 0.0 0.00 0.00 0.00 95 1025.0
20201203131204 49 326 0.0 0.0 0.00 0.00 0.00 95 1025.0
20201203130705 48 326 0.0 0.0 0.00 0.00 0.00 95 1024.9
20201203130152 47 346 0.0 0.0 0.00 0.00 0.00 95 1024.9
20201203125651 46 346 0.0 0.0 0.00 0.00 0.00 95 1024.8
20201203125139 46 346 0.0 0.0 0.00 0.00 0.00 95 1024.8
20201203124637 45 346 0.0 0.0 0.00 0.00 0.00 95 1024.8
20201203124128 45 346 0.0 0.0 0.00 0.00 0.00 94 1024.6
20201203123624 45 346 0.0 0.0 0.00 0.00 0.00 95 1024.6
20201203123117 44 60 0.0 0.0 0.00 0.00 0.00 94 1024.6
20201203122610 44 60 0.0 0.0 0.00 0.00 0.00 94 1024.5
20201203122104 44 60 0.0 0.0 0.00 0.00 0.00 95 1024.5
20201203121558 44 60 0.0 0.0 0.00 0.00 0.00 94 1024.5
20201203121056 44 235 0.0 0.0 0.00 0.00 0.00 94 1024.5
20201203120548 44 235 0.0 0.0 0.00 0.00 0.00 94 1024.5
20201203120041 43 263 0.0 0.0 0.00 0.00 0.00 94 1024.5
20201203115533 44 263 0.0 0.0 0.00 0.00 0.00 94 1024.5
20201203115037 44 263 0.0 0.0 0.00 0.00 0.00 94 1024.4
20201203114524 43 263 0.0 0.0 0.00 0.00 0.00 94 1024.3
20201203114021 44 263 0.0 0.0 0.00 0.00 0.00 94 1024.1
20201203113517 44 263 0.0 0.0 0.00 0.00 0.00 94 1024.1
20201203113025 44 263 0.0 0.0 0.00 0.00 0.00 94 1024.1
20201203112510 44 263 0.0 0.0 0.00 0.00 0.00 94 1024.0
20201203111952 43 263 0.0 0.0 0.00 0.00 0.00 94 1024.1
20201203111448 43 263 0.0 0.0 0.00 0.00 0.00 94 1024.1
20201203110940 43 263 0.0 0.0 0.00 0.00 0.00 94 1023.9
20201203110436 43 263 0.0 0.0 0.00 0.00 0.00 94 1023.9
20201203105930 43 263 0.0 0.0 0.00 0.00 0.00 94 1023.9
20201203105422 43 263 0.0 0.0 0.00 0.00 0.00 94 1023.8